This demonstration page uses our WeatherBlox Daily Observations layout. Learn more.

Left ArrowRight Arrow

39.01783, -85.05884

Hourly Observations for March 30, 2020

Temp ( °F °C ) Dew Point ( °F °C ) Humidity (%) Winds ( mph kmh ) Pressure ( in mb ) Visibility ( mi km ) Precip ( " mm )
12:52 am 00:52 Clear 54 12.2 37 2.8 53 53 SW 9 15 30.01 1016 10 16 0.00 0.00
1:52 am 01:52 Mostly Clear 53 11.7 38 3.3 57 57 SW 9 15 30.01 1016 10 16 0.00 0.00
2:52 am 02:52 Clear 52 11.1 36 2.2 55 55 WSW 9 15 30.00 1016 10 16 0.00 0.00
3:52 am 03:52 Clear 52 11.1 31 -0.6 45 45 WSW 10 17 30.01 1016 10 16 0.00 0.00
4:52 am 04:52 Mostly Clear 51 10.6 30 -1.1 44 44 W 18 30 30.02 1017 10 16 0.00 0.00
5:52 am 05:52 Clear 50 10 32 0 50 50 W 16 26 30.04 1017 10 16 0.00 0.00
6:52 am 06:52 Clear 48 8.9 30 -1.1 50 50 W 21 33 30.06 1018 10 16 0.00 0.00
7:52 am 07:52 Sunny 47 8.3 30 -1.1 52 52 W 14 22 30.08 1019 10 16 0.00 0.00
8:52 am 08:52 Sunny 49 9.4 30 -1.1 48 48 W 20 31 30.10 1019 10 16 0.00 0.00
9:52 am 09:52 Sunny 51 10.6 30 -1.1 44 44 W 21 33 30.11 1020 10 16 0.00 0.00
10:52 am 10:52 Sunny 54 12.2 31 -0.6 42 42 W 15 24 30.11 1020 10 16 0.00 0.00
11:52 am 11:52 Mostly Sunny 56 13.3 31 -0.6 39 39 WNW 20 31 30.12 1020 10 16 0.00 0.00
12:52 pm 12:52 Partly Cloudy 58 14.4 30 -1.1 35 35 W 24 39 30.12 1020 10 16 0.00 0.00
1:52 pm 13:52 Mostly Cloudy 59 15 29 -1.7 32 32 W 31 50 30.10 1019 10 16 0.00 0.00
2:52 pm 14:52 Mostly Cloudy 60 15.6 30 -1.1 32 32 W 23 37 30.10 1019 10 16 0.00 0.00
3:52 pm 15:52 Mostly Cloudy 61 16.1 31 -0.6 32 32 WNW 18 30 30.08 1019 10 16 0.00 0.00
4:52 pm 16:52 Mostly Cloudy 60 15.6 32 0 35 35 WNW 17 28 30.06 1018 10 16 0.00 0.00
5:52 pm 17:52 Mostly Cloudy 59 15 32 0 36 36 WNW 16 26 30.05 1018 10 16 0.00 0.00
6:52 pm 18:52 Partly Cloudy 58 14.4 32 0 38 38 WNW 14 22 30.06 1018 10 16 0.00 0.00
7:52 pm 19:52 Partly Cloudy 55 12.8 32 0 42 42 NW 10 17 30.06 1018 10 16 0.00 0.00
8:52 pm 20:52 Mostly Clear 52 11.1 36 2.2 55 55 N 10 17 30.09 1019 10 16 0.00 0.00
9:52 pm 21:52 Mostly Clear 50 10 36 2.2 59 59 NNE 9 15 30.09 1019 10 16 0.00 0.00
10:52 pm 22:52 Partly Cloudy 48 8.9 35 1.7 61 61 NNE 10 17 30.07 1018 10 16 0.00 0.00
11:52 pm 23:52 Cloudy 48 8.9 35 1.7 61 61 NNE 8 13 30.07 1018 10 16 0.00 0.00

Powered by AerisWeather